Regional Weather Roundup
Issued by NWS

Home | Current Version | Previous Version | Text Only | Print | Product List | Glossary Off
Versions: 1 2 3 4 5 6 7 8 9 10 11 12 13 14 15 16 17 18 19 20 21 22 23 24 25 26 27 28 29 30 31 32 33 34 35 36 37 38 39 40 41 42 43 44 45 46 47 48 49 50

000
ASUS43 KIND 260159
RWRIN

WEATHER ROUNDUP FOR INDIANA
NATIONAL WEATHER SERVICE INDIANAPOLIS IN
900 PM EST TUE NOV 25 2014

NOTE: "FAIR" INDICATES FEW OR NO CLOUDS BELOW 12,000 FEET WITH NO
SIGNIFICANT WEATHER AND/OR OBSTRUCTIONS TO VISIBILITY.

* - STATION DOES NOT REPORT WEATHER SUCH AS PRECIPITATION OR FOG.

+ - STATION NOT QUALITY CONTROLLED BY THE NATIONAL WEATHER SERVICE.
    USE DATA WITH CAUTION...ESPECIALLY DEWPOINT AND RELATIVE
    HUMIDITY OBSERVATIONS.

INZ001>003-010>013-019-020-260300-
NORTHWEST INDIANA

CITY           SKY/WX    TMP DP  RH WIND       PRES   REMARKS
GARY /AIRPORT/ CLOUDY    25  18  74 CALM      30.19F
VALPARAISO     NOT AVBL

$$

LMZ046-743>745-260300-
SOUTHERN LAKE MICHIGAN

STATION/POSITION TIME  TEMP WIND        PRES
                       AIR  DIR/SP/G
                 (UTC) (F)  (DEG/KT/KT) (MB)
MICHIGAN CITY    0100   25  160/  7/  9   N/A

$$

INZ004-005-014>016-021>024-260300-
NORTH CENTRAL INDIANA

CITY           SKY/WX    TMP DP  RH WIND       PRES   REMARKS
ELKHART        CLOUDY    27  18  69 SW3       30.20
GOSHEN         CLOUDY    26  18  71 CALM      30.19R
PERU/GRISSOM   CLOUDY    25  23  91 W7        30.21R WCI  18
SOUTH BEND     CLOUDY    26  19  74 S9        30.20R WCI  17

$$

INZ006>009-017-018-025>027-260300-
NORTHEAST INDIANA

CITY           SKY/WX    TMP DP  RH WIND       PRES   REMARKS
ANGOLA *+      CLOUDY    27  19  74 CALM      30.18R
FORT WAYNE     CLOUDY    26  20  77 W3        30.23R

$$

INZ028-029-035-036-043>045-051>053-260300-
WEST CENTRAL INDIANA

CITY           SKY/WX    TMP DP  RH WIND       PRES   REMARKS
GREENCASTLE +  CLOUDY    27  21  80 CALM      30.22R
LAFAYETTE      CLOUDY    26  20  77 CALM      30.22R
TERRE HAUTE    CLOUDY    29  21  72 NW3       30.23R

$$

INZ030>032-037>040-046>048-054>057-064-065-260300-
CENTRAL INDIANA

CITY           SKY/WX    TMP DP  RH WIND       PRES   REMARKS
COLUMBUS       PTCLDY    28  27  93 N3        30.20R
INDIANAPOLIS   CLOUDY    28  21  75 NW7       30.19S WCI  21
-EAGLE CREEK   CLOUDY    27  21  78 SW5       30.20R WCI  22
KOKOMO *+      CLOUDY    27  19  74 NW5       30.22R WCI  21
MT COMFORT *+  CLOUDY    28  19  69 CALM      30.20S
SHELBYVILLE    MOCLDY    30  24  78 N5        30.19R WCI  25

$$

INZ033-034-041-042-049-050-058-059-260300-
EAST CENTRAL INDIANA

CITY           SKY/WX    TMP DP  RH WIND       PRES   REMARKS
MUNCIE         CLOUDY    29  23  78 W6        30.20R WCI  23

$$

INZ060-061-067>069-081>083-085>088-260300-
SOUTHWEST INDIANA

CITY           SKY/WX    TMP DP  RH WIND       PRES   REMARKS
EVANSVILLE     MOCLDY    33  26  75 CALM      30.23R
HUNTINGBURG *+ CLOUDY    30  25  80 N7        30.21S WCI  23

$$

INZ062-063-066-070>080-084-089>092-260300-
SOUTH CENTRAL AND SOUTHEAST INDIANA

CITY           SKY/WX    TMP DP  RH WIND       PRES   REMARKS
BLOOMINGTON    CLOUDY    30  24  78 VRB5      30.20R WCI  25

$$




USA.gov is the U.S. government's official web portal to all federal, state and local government web resources and services.